DW1121 Weather Reports


time (UTC)temp
F
wind
direction
speed
knots
gust
knots
rain 1hr
in
rain 24hr
in
rain mn
in
humidity
%
barometer
mb
20260504060104 43 135 0.0 0.0 0.00 0.00 0.00 82 1018.2
20260504050604 44 176 0.0 0.0 0.00 0.00 0.00 79 1018.3
20260504045604 44 140 0.0 0.0 0.00 0.00 0.00 78 1018.2
20260504045104 44 145 0.0 0.0 0.00 0.00 0.00 78 1018.0
20260504044604 44 135 0.0 0.0 0.00 0.00 0.00 77 1018.0
20260504044104 44 145 0.0 0.0 0.00 0.00 0.00 77 1018.0
20260504043604 45 174 0.0 0.0 0.00 0.00 0.00 77 1018.1
20260504043104 45 180 0.0 0.0 0.00 0.00 0.00 75 1018.1
20260504042604 45 180 0.0 0.0 0.00 0.00 0.00 75 1017.9
20260504042104 45 153 0.0 0.0 0.00 0.00 0.00 74 1017.9
20260504041104 45 112 0.0 0.0 0.00 0.00 0.00 74 1018.0
20260504040104 46 248 0.0 0.0 0.00 0.00 0.00 73 1017.9
20260504035606 46 186 0.0 0.0 0.00 0.00 0.00 73 1017.9
20260504035104 46 107 0.0 0.0 0.00 0.00 0.00 72 1017.8
20260504034603 46 112 0.0 0.0 0.00 0.00 0.00 73 1017.8
20260504033603 46 204 0.0 0.0 0.00 0.00 0.00 71 1017.6
20260504033103 47 202 0.0 0.0 0.00 0.00 0.00 71 1017.6
20260504032604 47 202 0.0 0.0 0.00 0.00 0.00 72 1017.6
20260504032104 47 181 0.0 0.0 0.00 0.00 0.00 73 1017.6
20260504031604 47 150 0.0 0.0 0.00 0.00 0.00 71 1017.6
20260504031104 48 121 0.0 0.0 0.00 0.00 0.00 72 1017.6
20260504030104 48 134 0.0 0.0 0.00 0.00 0.00 71 1017.5
20260504025604 48 158 0.0 0.0 0.00 0.00 0.00 70 1017.5
20260504025104 49 147 0.0 0.0 0.00 0.00 0.00 68 1017.6
20260504024603 49 202 0.0 0.0 0.00 0.00 0.00 68 1017.6
20260504024103 49 84 0.0 0.0 0.00 0.00 0.00 69 1017.6
20260504023605 49 45 0.0 0.0 0.00 0.00 0.00 68 1017.6
20260504022604 50 158 0.9 0.9 0.00 0.00 0.00 66 1017.6
20260504021604 50 169 0.0 0.0 0.00 0.00 0.00 63 1017.6
20260504021103 51 202 0.0 0.0 0.00 0.00 0.00 61 1017.4
20260504020604 51 338 0.0 0.0 0.00 0.00 0.00 62 1017.4
20260504020104 51 229 0.0 0.0 0.00 0.00 0.00 61 1017.2
20260504015604 52 311 0.0 0.0 0.00 0.00 0.00 60 1017.2
20260504015104 52 303 0.0 0.0 0.00 0.00 0.00 59 1017.1
20260504014603 52 289 0.0 0.0 0.00 0.00 0.00 58 1017.1
20260504014104 52 350 0.0 0.0 0.00 0.00 0.00 56 1017.1
20260504013604 53 255 0.0 0.0 0.00 0.00 0.00 55 1017.1
20260504012604 53 319 0.0 0.0 0.00 0.00 0.00 54 1017.0
20260504012103 53 270 0.0 0.0 0.00 0.00 0.00 54 1017.0
20260504011604 54 260 0.0 0.0 0.00 0.00 0.00 53 1017.0
20260504011104 54 212 0.0 0.9 0.00 0.00 0.00 53 1017.1
20260504010604 54 270 0.0 0.0 0.00 0.00 0.00 51 1017.1
20260504010104 55 270 0.0 0.0 0.00 0.00 0.00 48 1016.9
20260504005604 55 283 0.0 0.0 0.00 0.00 0.00 48 1016.9
20260504005106 56 322 0.0 0.0 0.00 0.00 0.00 47 1016.7
20260504004603 56 270 0.0 0.0 0.00 0.00 0.00 46 1016.7
20260504004104 56 270 0.0 0.9 0.00 0.00 0.00 44 1016.7
20260504003605 57 281 0.9 0.9 0.00 0.00 0.00 43 1016.6
20260504002605 57 307 1.7 2.6 0.00 0.00 0.00 43 1016.6
20260504001104 58 277 0.9 1.7 0.00 0.00 0.00 41 1016.5
20260504000604 59 274 0.9 1.7 0.00 0.00 0.00 40 1016.5
20260503235605 60 260 0.9 1.7 0.00 0.00 0.00 38 1016.6
20260503235104 60 267 0.9 0.9 0.00 0.00 0.00 38 1016.7
20260503234604 61 273 0.9 1.7 0.00 0.00 0.00 37 1016.7
20260503234104 61 321 1.7 1.7 0.00 0.00 0.00 37 1016.7
20260503233603 62 326 1.7 1.7 0.00 0.00 0.00 36 1016.7
20260503233103 62 337 0.9 2.6 0.00 0.00 0.00 34 1016.7
20260503232104 63 53 0.9 1.7 0.00 0.00 0.00 32 1016.6
20260503231103 63 309 1.7 2.6 0.00 0.00 0.00 33 1016.6
20260503230104 64 291 1.7 5.2 0.00 0.00 0.00 30 1016.7
20260503225604 64 270 1.7 4.3 0.00 0.00 0.00 28 1016.7
20260503225104 65 323 0.9 2.6 0.00 0.00 0.00 29 1016.7
20260503224604 65 294 1.7 2.6 0.00 0.00 0.00 26 1016.7
20260503224104 66 277 1.7 6.1 0.00 0.00 0.00 27 1016.7
20260503222604 66 292 1.7 2.6 0.00 0.00 0.00 27 1016.6
20260503222105 67 257 1.7 4.3 0.00 0.00 0.00 27 1016.6
20260503221603 67 258 2.6 4.3 0.00 0.00 0.00 26 1016.6
20260503221104 67 57 1.7 4.3 0.00 0.00 0.00 28 1016.7
20260503220605 68 294 2.6 4.3 0.00 0.00 0.00 25 1016.7
20260503220104 68 348 1.7 4.3 0.00 0.00 0.00 26 1016.7
20260503215604 69 242 1.7 1.7 0.00 0.00 0.00 24 1016.7
20260503213604 70 318 1.7 4.3 0.00 0.00 0.00 23 1016.9
20260503213104 70 291 2.6 2.6 0.00 0.00 0.00 24 1016.9
20260503212604 70 233 1.7 5.2 0.00 0.00 0.00 25 1016.9
20260503212106 70 353 2.6 5.2 0.00 0.00 0.00 26 1016.9
20260503211604 71 292 1.7 4.3 0.00 0.00 0.00 24 1017.0
20260503210604 71 4 2.6 4.3 0.00 0.00 0.00 26 1017.1
20260503210104 71 9 3.5 7.0 0.00 0.00 0.00 24 1017.3
20260503205603 71 300 2.6 5.2 0.00 0.00 0.00 25 1017.3
20260503205104 70 277 1.7 4.3 0.00 0.00 0.00 24 1017.2
20260503204604 71 236 1.7 4.3 0.00 0.00 0.00 25 1017.2
20260503204104 71 40 0.9 1.7 0.00 0.00 0.00 27 1017.2
20260503203104 71 55 0.9 2.6 0.00 0.00 0.00 24 1017.5
20260503202604 71 326 1.7 2.6 0.00 0.00 0.00 25 1017.5
20260503202104 71 273 0.9 4.3 0.00 0.00 0.00 24 1017.5
20260503201604 71 218 0.9 1.7 0.00 0.00 0.00 25 1017.5
20260503200604 70 175 0.9 2.6 0.00 0.00 0.00 26 1017.7
20260503200104 70 339 1.7 2.6 0.00 0.00 0.00 25 1017.9
20260503195604 70 25 1.7 2.6 0.00 0.00 0.00 26 1017.9
20260503195105 70 257 3.5 5.2 0.00 0.00 0.00 24 1018.0
20260503194605 70 185 1.7 1.7 0.00 0.00 0.00 25 1018.0
20260503194104 70 273 0.9 2.6 0.00 0.00 0.00 24 1018.0
20260503193604 70 317 1.7 6.1 0.00 0.00 0.00 24 1018.3
20260503193105 70 244 4.3 8.7 0.00 0.00 0.00 24 1018.3
20260503192604 70 22 4.3 6.1 0.00 0.00 0.00 24 1018.3
20260503192104 71 11 3.5 7.0 0.00 0.00 0.00 22 1018.3
20260503191104 70 162 5.2 7.8 0.00 0.00 0.00 24 1018.4
20260503190604 71 309 3.5 7.8 0.00 0.00 0.00 21 1018.4
20260503185604 71 2 2.6 8.7 0.00 0.00 0.00 22 1018.5
20260503185104 69 170 0.9 1.7 0.00 0.00 0.00 23 1018.7
20260503184604 70 282 1.7 2.6 0.00 0.00 0.00 26 1018.7
20260503183604 71 303 1.7 1.7 0.00 0.00 0.00 24 1018.8
20260503182604 69 196 1.7 2.6 0.00 0.00 0.00 26 1018.9
20260503182104 69 262 1.7 8.7 0.00 0.00 0.00 25 1018.9
20260503181604 69 202 1.7 2.6 0.00 0.00 0.00 25 1018.9
20260503180604 69 251 0.9 1.7 0.00 0.00 0.00 27 1018.9
20260503180104 68 132 1.7 4.3 0.00 0.00 0.00 26 1019.0
20260503175604 68 198 2.6 4.3 0.00 0.00 0.00 26 1019.0
20260503175105 68 225 2.6 4.3 0.00 0.00 0.00 27 1019.1
20260503174104 67 206 1.7 2.6 0.00 0.00 0.00 28 1019.1
20260503173605 67 19 2.6 2.6 0.00 0.00 0.00 28 1019.2
20260503173104 67 214 2.6 4.3 0.00 0.00 0.00 32 1019.2
20260503172604 68 174 2.6 4.3 0.00 0.00 0.00 30 1019.3
20260503172104 68 191 2.6 4.3 0.00 0.00 0.00 30 1019.3
20260503171105 66 270 0.9 4.3 0.00 0.00 0.00 30 1019.6
20260503170110 65 155 3.5 5.2 0.00 0.00 0.00 30 1019.6
20260503160105 62 193 2.6 5.2 0.00 0.00 0.00 40 1020.0
20260503150605 58 203 0.0 5.2 0.00 0.00 0.00 47 1020.4
20260503150104 59 22 2.6 4.3 0.00 0.00 0.00 46 1020.3
20260503140104 52 57 0.0 0.0 0.00 0.00 0.00 65 1020.4
20260503131105 45 182 0.0 0.9 0.00 0.00 0.00 84 1020.3
20260503130105 44 213 0.0 0.0 0.00 0.00 0.00 86 1020.5
20260503120106 38 184 0.0 0.0 0.00 0.00 0.00 89 1020.1
20260503110606 37 112 0.0 0.0 0.00 0.00 0.00 89 1019.0
20260503110106 37 118 0.0 0.0 0.00 0.00 0.00 89 1018.8
20260503100105 38 202 0.0 0.0 0.00 0.00 0.00 89 1018.4
20260503090105 39 202 0.0 0.0 0.00 0.00 0.00 88 1018.0
20260503081604 40 192 0.0 0.0 0.00 0.00 0.00 87 1017.6
20260503081104 40 90 0.0 0.0 0.00 0.00 0.00 87 1017.5
20260503080605 41 163 0.0 0.0 0.00 0.00 0.00 87 1017.5
20260503080104 41 178 0.0 0.0 0.00 0.00 0.00 87 1017.5
20260503072604 41 132 0.0 0.0 0.00 0.00 0.00 88 1017.3
20260503072105 42 160 0.0 0.0 0.00 0.00 0.00 88 1017.3
20260503071604 42 158 0.0 0.0 0.00 0.00 0.00 88 1017.3
20260503071104 42 190 0.0 0.0 0.00 0.00 0.00 88 1017.2
20260503070604 42 268 0.9 1.7 0.00 0.00 0.00 88 1017.2
20260503070104 42 270 0.0 1.7 0.00 0.00 0.00 88 1017.0